Location: Rayville (historical)
(39.9992°N, 99.6815°W)
Time: 21:57:14
(UTC+00:00)

STARLINK-32 - Pass Details

Date: 18 February 2020
Orbit: 529 x 530 km, 53.0° (Epoch: 29 March)

Event Time Altitude Azimuth Distance (km) Brightness Sun altitude
Rises 01:58:55 0° 235° (SW) 2,652 8.0 -20.2°
Reaches altitude 10° 02:01:08 10° 238° (WSW) 1,766 7.0 -20.6°
Maximum altitude 02:05:07 69° 322° (NW) 568 3.7 -21.4°
Enters shadow 02:05:51 54° 20° (NNE) 645 3.8 -21.5°
